Deer Park, WA
on Sunday, November 4, 2012

Sunday
Previous Day Next Day
Daily Summary
 ActualAverageRecord
Temperature
Mean Temperature °F 38°F  
Max Temperature 56°F 47°F 58°F (2010)
Min Temperature 47°F 28°F 8°F (2003)
Degree Days
Heating Degree Days 13 27  
Month to date heating degree days 69 107  
Since 1 July heating degree days 981 1175  
Cooling Degree Days 0 0  
Month to date cooling degree days 0 0  
Year to date cooling degree days 232 187  
Growing Degree Days2 (Base °F )  
Moisture
Dew Point 49°F   
Average Humidity 92    
Maximum Humidity 100    
Minimum Humidity 83    
Precipitation
Precipitation 0.00 in 0.10 in 0.65 in (2006)
Month to date precipitation 0.15 0.40  
Year to date precipitation 20.15 16.46  
Wind
Wind Speed 5 mph   
Max Wind Speed 12 mph   
Max Gust Speed 14 mph   
Visibility 10 miles   
Events     

Key: T is trace of precipitation, MM is missing value
Source: NWS Daily Summary
Time(PST)TemperatureDew PointHumidity Pressure Visibility Wind DirectionWind SpeedGust SpeedPrecipitationEvents Conditions
12:11 AM 50.0°F 48.2°F 94% 30.16 in 10.0 miles SSE 5.8 mph - N/A   Overcast
12:21 AM 50.0°F 48.2°F 94% 30.16 in 10.0 miles SSE 6.9 mph - N/A   Overcast
12:49 AM 48.2°F 48.2°F 100% 30.18 in 8.0 miles South 6.9 mph - N/A   Overcast
12:53 AM 48.9°F 48.9°F 100% 30.20 in 8.0 miles South 8.1 mph - N/A   Overcast
1:53 AM 48.9°F 48.9°F 100% 30.21 in 10.0 miles South 6.9 mph - N/A   Overcast
1:30 AM 48.2°F 48.2°F 100% 30.20 in 10.0 miles South 6.9 mph - N/A   Overcast
1:49 AM 48.2°F 48.2°F 100% 30.20 in 10.0 miles SSE 4.6 mph - N/A   Overcast
1:53 AM 48.9°F 48.9°F 100% 30.22 in 10.0 miles SSE 5.8 mph - N/A   Overcast
2:30 AM 48.2°F 48.2°F 100% 30.20 in 8.0 miles SSE 4.6 mph - N/A   Overcast
2:53 AM 48.9°F 48.0°F 97% 30.22 in 10.0 miles SSE 6.9 mph - N/A   Mostly Cloudy
3:12 AM 48.2°F 48.2°F 100% 30.21 in 10.0 miles SSE 5.8 mph - N/A   Mostly Cloudy
3:53 AM 48.9°F 48.0°F 97% 30.23 in 10.0 miles SSE 5.8 mph - N/A   Overcast
4:53 AM 48.0°F 48.0°F 100% 30.25 in 10.0 miles South 3.5 mph - N/A   Overcast
5:44 AM 48.2°F 46.4°F 93% 30.25 in 10.0 miles South 4.6 mph - N/A   Overcast
5:53 AM 48.0°F 46.9°F 96% 30.27 in 10.0 miles South 4.6 mph - N/A   Overcast
6:53 AM 48.0°F 46.9°F 96% 30.30 in 7.0 miles Calm Calm - N/A   Overcast
7:16 AM 48.2°F 48.2°F 100% 30.29 in 7.0 miles Calm Calm - N/A   Overcast
7:53 AM 48.9°F 48.0°F 97% 30.31 in 10.0 miles South 4.6 mph - N/A   Overcast
8:53 AM 51.1°F 48.9°F 92% 30.31 in 10.0 miles South 8.1 mph - N/A   Overcast
9:19 AM 51.8°F 50.0°F 94% 30.31 in 10.0 miles South 5.8 mph - N/A   Overcast
9:40 AM 51.8°F 50.0°F 94% 30.31 in 10.0 miles South 4.6 mph - N/A   Overcast
9:53 AM 52.0°F 50.0°F 93% 30.33 in 10.0 miles SSE 5.8 mph - N/A   Overcast
10:45 AM 53.6°F 50.0°F 88% 30.33 in 10.0 miles South 4.6 mph - N/A   Overcast
10:53 AM 53.1°F 50.0°F 89% 30.34 in 10.0 miles SSE 4.6 mph - N/A   Overcast
11:53 AM 55.9°F 51.1°F 84% 30.32 in 10.0 miles South 8.1 mph - N/A   Overcast
12:09 PM 55.4°F 50.0°F 82% 30.31 in 10.0 miles South 8.1 mph - N/A   Overcast
12:18 PM 55.4°F 50.0°F 82% 30.31 in 10.0 miles South 10.4 mph - N/A   Overcast
12:53 PM 55.9°F 50.0°F 80% 30.32 in 10.0 miles South 8.1 mph - N/A   Overcast
1:43 PM 55.4°F 50.0°F 82% 30.31 in 10.0 miles South 5.8 mph - N/A   Mostly Cloudy
1:53 PM 55.9°F 50.0°F 80% 30.32 in 10.0 miles South 4.6 mph - N/A   Overcast
2:34 PM 55.4°F 50.0°F 82% 30.32 in 10.0 miles Calm Calm - N/A   Overcast
2:53 PM 55.9°F 51.1°F 84% 30.33 in 10.0 miles Calm Calm - N/A   Overcast
3:53 PM 55.9°F 51.1°F 84% 30.33 in 10.0 miles Calm Calm - N/A   Overcast
4:53 PM 54.0°F 51.1°F 90% 30.31 in 10.0 miles Calm Calm - N/A   Overcast
5:17 PM 53.6°F 51.8°F 94% 30.29 in 10.0 miles SSE 4.6 mph - N/A   Overcast
5:53 PM 55.0°F 51.1°F 86% 30.30 in 10.0 miles SSE 5.8 mph - N/A   Overcast
6:53 PM 54.0°F 51.1°F 90% 30.32 in 10.0 miles Calm Calm - N/A   Overcast
7:53 PM 54.0°F 50.0°F 86% 30.30 in 10.0 miles Calm Calm - N/A   Overcast
8:53 PM 54.0°F 50.0°F 86% 30.29 in 10.0 miles SW 3.5 mph - N/A   Overcast
9:53 PM 53.1°F 48.9°F 86% 30.28 in 10.0 miles South 6.9 mph - N/A   Overcast
10:53 PM 54.0°F 48.9°F 83% 30.26 in 10.0 miles South 9.2 mph - N/A   Overcast
Moon Phase
Nov. 04 Nov. 06 Nov. 13 Nov. 20 Nov. 28
Sunrise:06:40 AM (PST) Moon Rise:09:04 PM (PST)11/4
Sunset:04:25 PM (PST) Moon Set:11:31 AM (PST)11/4

Copyright © 2014 The Weather Underground, Inc.